When you browse on this site, cookies collect data to enhance your experience and personalize the content and advertising you see.
Visit our Privacy Policy to learn more. By continuing to use the site, you agree to this use of cookies and data.
  • In United Kingdom
  • List of Countries
  • For 7 days
  • Water Temperature
  • Satellite Maps
  • Weather Map
  • Weather Widgets
  • user-avatar
    Login

    Hourly Weather Abomey

    Today, 16 February, Saturday

    Time Temperature Precipitation Wind Pressure Humidity
    00:00 +30°C° 0 mm 1 mps 740 mmHg 40%
    01:00 +29°C° 0 mm 1 mps 739 mmHg 50%
    02:00 +28°C° 0 mm 1 mps 739 mmHg 61%
    03:00 +27°C° 0 mm 1 mps 739 mmHg 72%
    04:00 +27°C° 0 mm 1 mps 739 mmHg 77%
    05:00 +25°C° 0 mm 0 mps 739 mmHg 82%
    06:00 +24°C° 0 mm 0 mps 739 mmHg 87%
    07:00 +27°C° 0 mm 0 mps 740 mmHg 72%
    08:00 +29°C° 0 mm 0 mps 740 mmHg 57%
    09:00 +31°C° 0 mm 0 mps 741 mmHg 41%
    10:00 +35°C° 0 mm 1 mps 740 mmHg 33%
    11:00 +37°C° 0 mm 1 mps 740 mmHg 24%
    12:00 +40°C° 0 mm 2 mps 740 mmHg 15%
    13:00 +40°C° 0 mm 2 mps 739 mmHg 13%
    14:00 +41°C° 0 mm 2 mps 738 mmHg 11%
    15:00 +42°C° 0 mm 2 mps 738 mmHg 9%
    16:00 +40°C° 0 mm 2 mps 738 mmHg 16%
    17:00 +38°C° 0 mm 3 mps 737 mmHg 23%
    18:00 +36°C° 0 mm 4 mps 737 mmHg 29%
    19:00 +34°C° 0 mm 4 mps 738 mmHg 41%
    20:00 +33°C° 0 mm 4 mps 739 mmHg 52%
    21:00 +30°C° 0 mm 4 mps 739 mmHg 63%
    22:00 +29°C° 0 mm 3 mps 739 mmHg 66%
    23:00 +29°C° 0 mm 3 mps 739 mmHg 69%

    Tomorrow, 17 February, Sunday

    Time Temperature Precipitation Wind Pressure Humidity
    00:00 +29°C° 0 mm 3 mps 740 mmHg 72%
    01:00 +28°C° 0 mm 3 mps 739 mmHg 74%
    02:00 +28°C° 0 mm 2 mps 739 mmHg 76%
    03:00 +27°C° 0 mm 1 mps 739 mmHg 78%
    04:00 +27°C° 0 mm 1 mps 739 mmHg 79%
    05:00 +27°C° 0 mm 1 mps 739 mmHg 81%
    06:00 +25°C° 0 mm 0 mps 739 mmHg 82%
    07:00 +28°C° 0 mm 1 mps 739 mmHg 73%
    08:00 +30°C° 0 mm 1 mps 740 mmHg 64%
    09:00 +32°C° 0 mm 1 mps 741 mmHg 55%
    10:00 +35°C° 0 mm 1 mps 740 mmHg 45%
    11:00 +39°C° 0 mm 1 mps 740 mmHg 36%
    12:00 +39°C° 0 mm 0 mps 740 mmHg 26%
    13:00 +39°C° 0 mm 0 mps 739 mmHg 24%
    14:00 +42°C° 0 mm 1 mps 738 mmHg 22%
    15:00 +42°C° 0 mm 1 mps 737 mmHg 21%
    16:00 +40°C° 0 mm 2 mps 737 mmHg 26%
    17:00 +39°C° 0 mm 3 mps 737 mmHg 30%
    18:00 +37°C° 0 mm 4 mps 737 mmHg 35%
    19:00 +35°C° 0 mm 4 mps 738 mmHg 45%
    20:00 +33°C° 0 mm 3 mps 738 mmHg 55%
    21:00 +30°C° 0 mm 3 mps 739 mmHg 64%
    22:00 +30°C° 0 mm 3 mps 739 mmHg 66%
    23:00 +30°C° 0 mm 3 mps 739 mmHg 69%

    Day after tomorrow, 18 February, Monday

    Time Temperature Precipitation Wind Pressure Humidity
    00:00 +29°C° 0 mm 3 mps 739 mmHg 71%
    01:00 +29°C° 0 mm 3 mps 738 mmHg 72%
    02:00 +28°C° 0 mm 3 mps 738 mmHg 74%
    03:00 +28°C° 0 mm 3 mps 737 mmHg 75%
    04:00 +28°C° 0 mm 2 mps 738 mmHg 77%
    05:00 +28°C° 0 mm 1 mps 738 mmHg 78%
    06:00 +27°C° 0 mm 1 mps 738 mmHg 79%
    07:00 +29°C° 0 mm 1 mps 739 mmHg 72%
    08:00 +30°C° 0 mm 2 mps 739 mmHg 65%
    09:00 +32°C° 0 mm 2 mps 740 mmHg 58%
    10:00 +35°C° 0 mm 2 mps 739 mmHg 50%
    11:00 +37°C° 0 mm 2 mps 739 mmHg 42%
    12:00 +39°C° 0 mm 2 mps 738 mmHg 34%
    13:00 +40°C° 0 mm 1 mps 737 mmHg 30%
    14:00 +41°C° 0 mm 1 mps 737 mmHg 26%
    15:00 +42°C° 0 mm 1 mps 736 mmHg 22%
    16:00 +41°C° 0 mm 2 mps 736 mmHg 27%
    17:00 +39°C° 0 mm 3 mps 736 mmHg 33%
    18:00 +37°C° 0 mm 4 mps 736 mmHg 38%
    19:00 +35°C° 0 mm 4 mps 736 mmHg 48%
    20:00 +33°C° 0 mm 4 mps 737 mmHg 58%
    21:00 +30°C° 0 mm 4 mps 737 mmHg 68%
    22:00 +30°C° 0 mm 4 mps 738 mmHg 70%
    23:00 +29°C° 0 mm 4 mps 738 mmHg 71%

    19 February, Tuesday

    Time Temperature Precipitation Wind Pressure Humidity
    00:00 +29°C° 0 mm 4 mps 738 mmHg 73%
    01:00 +29°C° 0 mm 3 mps 737 mmHg 74%
    02:00 +28°C° 0 mm 3 mps 737 mmHg 76%
    03:00 +28°C° 0 mm 2 mps 736 mmHg 77%
    04:00 +28°C° 0 mm 2 mps 737 mmHg 78%
    05:00 +28°C° 0 mm 2 mps 737 mmHg 79%
    06:00 +28°C° 0 mm 2 mps 737 mmHg 80%
    07:00 +29°C° 0 mm 2 mps 738 mmHg 73%
    08:00 +31°C° 0 mm 3 mps 738 mmHg 66%
    09:00 +33°C° 0 mm 3 mps 739 mmHg 59%
    10:00 +36°C° 0 mm 2 mps 739 mmHg 49%
    11:00 +39°C° 0 mm 1 mps 738 mmHg 39%
    12:00 +42°C° 0 mm 1 mps 738 mmHg 30%
    13:00 +41°C° 0 mm 1 mps 737 mmHg 29%
    14:00 +41°C° 0 mm 1 mps 736 mmHg 28%
    15:00 +41°C° 0 mm 1 mps 735 mmHg 26%
    16:00 +39°C° 0 mm 2 mps 735 mmHg 33%
    17:00 +38°C° 0 mm 4 mps 735 mmHg 39%
    18:00 +36°C° 0 mm 5 mps 735 mmHg 45%
    19:00 +34°C° 0 mm 4 mps 736 mmHg 52%
    20:00 +33°C° 0 mm 4 mps 736 mmHg 59%
    21:00 +30°C° 0 mm 4 mps 737 mmHg 66%
    22:00 +30°C° 0 mm 4 mps 737 mmHg 69%
    23:00 +29°C° 0 mm 4 mps 737 mmHg 72%

    20 February, Wednesday

    Time Temperature Precipitation Wind Pressure Humidity
    00:00 +29°C° 0 mm 4 mps 737 mmHg 75%
    01:00 +29°C° 0 mm 4 mps 737 mmHg 76%
    02:00 +29°C° 0 mm 3 mps 736 mmHg 78%
    03:00 +28°C° 0 mm 3 mps 736 mmHg 79%
    04:00 +28°C° 0 mm 3 mps 736 mmHg 78%
    05:00 +28°C° 0 mm 3 mps 737 mmHg 77%
    06:00 +28°C° 0 mm 3 mps 737 mmHg 77%
    07:00 +29°C° 0 mm 3 mps 738 mmHg 74%
    08:00 +29°C° 0 mm 3 mps 738 mmHg 71%
    09:00 +30°C° 0 mm 3 mps 739 mmHg 68%
    10:00 +33°C° 0 mm 3 mps 739 mmHg 59%
    11:00 +36°C° 0 mm 2 mps 738 mmHg 50%
    12:00 +38°C° 0 mm 2 mps 738 mmHg 41%
    13:00 +39°C° 0 mm 2 mps 737 mmHg 37%
    14:00 +40°C° 0 mm 2 mps 736 mmHg 33%
    15:00 +41°C° 0 mm 2 mps 736 mmHg 29%
    16:00 +39°C° 0 mm 2 mps 736 mmHg 34%
    17:00 +38°C° 0 mm 3 mps 736 mmHg 39%
    18:00 +37°C° 0 mm 4 mps 737 mmHg 44%
    19:00 +35°C° 0.2 mm 4 mps 737 mmHg 53%
    20:00 +33°C° 0.2 mm 4 mps 738 mmHg 62%
    21:00 +30°C° 0.2 mm 4 mps 738 mmHg 71%
    22:00 +30°C° 0 mm 4 mps 738 mmHg 72%
    23:00 +29°C° 0 mm 4 mps 738 mmHg 74%

    21 February, Thursday

    Time Temperature Precipitation Wind Pressure Humidity
    00:00 +29°C° 0 mm 4 mps 738 mmHg 75%
    01:00 +29°C° 0 mm 4 mps 738 mmHg 75%
    02:00 +29°C° 0 mm 4 mps 738 mmHg 76%
    03:00 +29°C° 0 mm 4 mps 737 mmHg 76%
    04:00 +28°C° 0 mm 3 mps 737 mmHg 76%
    05:00 +28°C° 0 mm 3 mps 738 mmHg 75%
    06:00 +28°C° 0 mm 3 mps 738 mmHg 75%
    07:00 +30°C° 0 mm 3 mps 739 mmHg 68%
    08:00 +31°C° 0 mm 3 mps 739 mmHg 61%
    09:00 +34°C° 0 mm 3 mps 740 mmHg 54%
    10:00 +36°C° 0 mm 3 mps 739 mmHg 47%
    11:00 +38°C° 0 mm 2 mps 739 mmHg 40%
    12:00 +40°C° 0 mm 1 mps 738 mmHg 33%
    13:00 +40°C° 0 mm 1 mps 738 mmHg 34%
    14:00 +39°C° 0 mm 2 mps 737 mmHg 34%
    15:00 +39°C° 0 mm 2 mps 736 mmHg 34%
    16:00 +38°C° 0 mm 2 mps 737 mmHg 35%
    17:00 +38°C° 0 mm 2 mps 737 mmHg 37%
    18:00 +37°C° 0 mm 2 mps 737 mmHg 38%
    19:00 +35°C° 0 mm 3 mps 738 mmHg 47%
    20:00 +34°C° 0 mm 3 mps 738 mmHg 56%
    21:00 +32°C° 0 mm 4 mps 739 mmHg 65%
    22:00 +30°C° 0 mm 4 mps 738 mmHg 67%
    23:00 +30°C° 0 mm 4 mps 738 mmHg 70%
    Show more